Powrót do katalogu

SCOUT B DEB

LostUNKNOWN
NORAD 29178·DEBRIS·🇺🇸 United States

Wystrzelony Aug 10, 1965 z Wallops Flight Facility

Loading…

Następne Przeloty (najbliższe 24 godziny)

TLE

NieaktualneSource: Space-Track

Epoka: Apr 22, 2024, 13:27 UTC

1 29178U 65063AC  24113.56103103  .00000615  00000-0  42642-2 0  9999
2 29178  69.2088 178.7618 0768593   4.3819  55.6524 11.85292181823483

Śledź SCOUT B DEB w czasie rzeczywistym z AllMySat

Download on the App Store